This is the latest recevied weather packets stored in our database for station/object N9CQL. If no packets are shown the sender has not sent any weather packets the latest 10 day(s).
| Time | Temp. | Humidity | Pressure | Rain* | Wind** | Luminosity | Snow |
|---|---|---|---|---|---|---|---|
| 1777698024 | 0.56° C | 89% | 1018.7 hPa | 0 mm | - | 0 W/m² | - |
| 1777697720 | 1.11° C | 89% | 1018.5 hPa | 0 mm | - | 0 W/m² | - |
| 1777697418 | 1.11° C | 89% | 1018.6 hPa | 0 mm | - | 0 W/m² | - |
| 1777697114 | 1.11° C | 88% | 1018.7 hPa | 0 mm | - | 0 W/m² | - |
| 1777696810 | 1.11° C | 88% | 1018.7 hPa | 0 mm | - | 0 W/m² | - |
| 1777696508 | 1.11° C | 88% | 1018.6 hPa | 0 mm | - | 0 W/m² | - |
| 1777696204 | 0.56° C | 88% | 1018.8 hPa | 0 mm | - | 0 W/m² | - |
| 1777695899 | 1.11° C | 87% | 1018.6 hPa | 0 mm | - | 0 W/m² | - |
| 1777695597 | 1.11° C | 87% | 1018.6 hPa | 0 mm | - | 0 W/m² | - |
| 1777695295 | 1.11° C | 87% | 1018.6 hPa | 0 mm | - | 0 W/m² | - |
| 1777694991 | 1.11° C | 87% | 1018.5 hPa | 0 mm | - | 0 W/m² | - |
| 1777694688 | 1.11° C | 87% | 1018.7 hPa | 0 mm | - | 0 W/m² | - |
| 1777694384 | 1.11° C | 87% | 1018.5 hPa | 0 mm | - | 0 W/m² | - |
| 1777694080 | 1.11° C | 87% | 1018.6 hPa | 0 mm | - | 0 W/m² | - |
| 1777693779 | 1.11° C | 86% | 1018.5 hPa | 0 mm | - | 0 W/m² | - |
| 1777693477 | 1.11° C | 86% | 1018.5 hPa | 0 mm | - | 0 W/m² | - |
| 1777693175 | 1.67° C | 85% | 1018.3 hPa | 0 mm | - | 0 W/m² | - |
| 1777692872 | 1.11° C | 85% | 1018.3 hPa | 0 mm | - | 0 W/m² | - |
| 1777692569 | 1.67° C | 84% | 1018.4 hPa | 0 mm | - | 0 W/m² | - |
| 1777692265 | 1.67° C | 83% | 1018.4 hPa | 0 mm | - | 0 W/m² | - |
| 1777691962 | 1.67° C | 83% | 1018.1 hPa | 0 mm | - | 0 W/m² | - |
| 1777691661 | 1.67° C | 83% | 1018.4 hPa | 0 mm | - | 0 W/m² | - |
| 1777691359 | 1.67° C | 82% | 1018.2 hPa | 0 mm | - | 0 W/m² | - |
| 1777691057 | 2.22° C | 82% | 1018.3 hPa | 0 mm | - | 0 W/m² | - |
| 1777690755 | 2.22° C | 81% | 1018.4 hPa | 0 mm | - | 0 W/m² | - |
* Rain latest hour (hover to see other rain measurements)
** Current wind speed in m/s (hover to see current wind gust speed)